QPF
0.00 0.00 0.00 0.00 0.00 0.00 0.00 0.00 0.00 0.00 0.00 0.00 0.00 0.00 0.00 0.00 0.00 0.00 0.00 0.00 0.00 0.00 0.00 0.00 0.00 0.00 0.00 0.00 0.00 0.00 0.00 0.00 0.00 0.00 0.00 0.00 0.00 0.00
0.00 0.00 0.00 0.00 0.00 0.00 0.00 0.00 0.00 0.00 0.00 0.00 0.00 0.00 0.00 0.00 0.00 0.00 0.00 0.00 0.00 0.00 0.00 0.00 0.00 0.00 0.00 0.00 0.00 0.00 0.00 0.00 0.00 0.00 0.00 0.00 0.00 0.00
0.00 0.00 0.00 0.00 0.00 0.00 0.00 0.00 0.00 0.00 0.00 0.00 0.00 0.00 0.00 0.00 0.00 0.00 0.00 0.00 0.00 0.00 0.00 0.00 0.00 0.00 0.00 0.00 0.00 0.00 0.00 0.00 0.00 0.00 0.00 0.00 0.00 0.00
0.00 0.00 0.00 0.00 0.00 0.00 0.00 0.00 0.00 0.00 0.00 0.00 0.00 0.00 0.00 0.00 0.00 0.00 0.00 0.00 0.00 0.00 0.00 0.00 0.00 0.00 0.00 0.00 0.00 0.00 0.00 0.00 0.00 0.00 0.00 0.00 0.00 0.00
0.00 0.00 0.00 0.00 0.00 0.00 0.00 0.00 0.00 0.00 0.00 0.00 0.00 0.00 0.00 0.00 0.00 0.00 0.00 0.00 0.00 0.00 0.00 0.00 0.00 0.00 0.00 0.00 0.00 0.00 0.00 0.00 0.00 0.00 0.00 0.00 0.00 0.00
0.00 0.00 0.00 0.00 0.00 0.00 0.00 0.00 0.00 0.00 0.00 0.00 0.00 0.00 0.00 0.00 0.00 0.00 0.00 0.00 0.00 0.00 0.00 0.00 0.00 0.00 0.00 0.00 0.00 0.00 0.00 0.00 0.00 0.00 0.00 0.00 0.00 0.00
0.00 0.00 0.00 0.00 0.00 0.00 0.00 0.00 0.00 0.00 0.00 0.00 0.00 0.00 0.00 0.00 0.00 0.00 0.00 0.00 0.00 0.00 0.00 0.00 0.00 0.00 0.00 0.00 0.00 0.00 0.00 0.00 0.00 0.00 0.00 0.00 0.00 0.00
0.01 0.01 0.00 0.00 0.00 0.00 0.00 0.00 0.00 0.00 0.00 0.00 0.00 0.00 0.00 0.00 0.00 0.00 0.00 0.00 0.00 0.00 0.00 0.00 0.00 0.00 0.00 0.00 0.00 0.00 0.00 0.00 0.00 0.00 0.00 0.00 0.00 0.00
0.02 0.02 0.01 0.00 0.02 0.02 0.02 0.02 0.02 0.02 0.03 0.02 0.02 0.01 0.00 0.00 0.00 0.00 0.00 0.00 0.00 0.00 0.00 0.00 0.00 0.00 0.00 0.00 0.00 0.00 0.00 0.00 0.00 0.00 0.00 0.00 0.00 0.00
0.03 0.02 0.01 0.01 0.01 0.02 0.03 0.03 0.02 0.02 0.04 0.06 0.05 0.04 0.03 0.02 0.01 0.00 0.00 0.00 0.00 0.00 0.00 0.00 0.00 0.00 0.00 0.00 0.00 0.00 0.00 0.00 0.00 0.00 0.00 0.00 0.00 0.00
0.00 0.01 0.01 0.00 0.01 0.02 0.02 0.01 0.00 0.01 0.05 0.09 0.11 0.13 0.12 0.10 0.06 0.03 0.01 0.01 0.01 0.00 0.00 0.00 0.00 0.00 0.00 0.00 0.00 0.00 0.00 0.00 0.00 0.00 0.00 0.00 0.00 0.00
0.00 0.00 0.03 0.03 0.03 0.02 0.01 0.00 0.00 0.00 0.01 0.06 0.15 0.15 0.14 0.13 0.10 0.04 0.02 0.04 0.05 0.04 0.02 0.03 0.00 0.00 0.00 0.00 0.00 0.00 0.00 0.00 0.00 0.00 0.00 0.00 0.00 0.00
0.01 0.01 0.02 0.06 0.07 0.06 0.04 0.01 0.01 0.02 0.02 0.03 0.05 0.08 0.12 0.14 0.13 0.11 0.09 0.11 0.10 0.05 0.01 0.00 0.00 0.00 0.00 0.00 0.00 0.00 0.00 0.00 0.00 0.00 0.00 0.00 0.00 0.00
0.01 0.02 0.01 0.06 0.07 0.06 0.04 0.02 0.02 0.02 0.01 0.01 0.02 0.05 0.05 0.07 0.10 0.13 0.11 0.07 0.03 0.01 0.00 0.00 0.00 0.00 0.00 0.00 0.00 0.00 0.00 0.00 0.00 0.00 0.00 0.00 0.00 0.00
0.01 0.03 0.08 0.07 0.06 0.06 0.07 0.06 0.05 0.02 0.02 0.03 0.04 0.03 0.03 0.04 0.05 0.05 0.03 0.01 0.00 0.00 0.00 0.00 0.00 0.00 0.00 0.01 0.00 0.00 0.01 0.01 0.00 0.00 0.00 0.00 0.00 0.00
0.00 0.00 0.04 0.07 0.09 0.10 0.10 0.07 0.05 0.04 0.04 0.03 0.02 0.01 0.01 0.01 0.02 0.02 0.02 0.02 0.02 0.02 0.01 0.02 0.01 0.00 0.01 0.01 0.02 0.01 0.01 0.01 0.00 0.00 0.00 0.00 0.00 0.00
0.00 0.00 0.00 0.02 0.04 0.07 0.11 0.12 0.10 0.07 0.02 0.00 0.00 0.00 0.00 0.01 0.01 0.01 0.01 0.02 0.02 0.01 0.03 0.05 0.04 0.02 0.01 0.01 0.00 0.00 0.00 0.00 0.00 0.00 0.00 0.00 0.00 0.00
0.00 0.00 0.00 0.02 0.05 0.06 0.06 0.06 0.10 0.13 0.08 0.04 0.01 0.00 0.00 0.01 0.01 0.02 0.03 0.03 0.04 0.03 0.04 0.04 0.03 0.02 0.01 0.00 0.00 0.00 0.00 0.00 0.00 0.00 0.00 0.00 0.00 0.00
0.00 0.00 0.00 0.00 0.01 0.02 0.02 0.01 0.02 0.03 0.03 0.02 0.01 0.01 0.01 0.01 0.04 0.02 0.03 0.02 0.02 0.01 0.02 0.03 0.05 0.03 0.02 0.01 0.00 0.00 0.00 0.00 0.00 0.00 0.00 0.00 0.00 0.00
0.00 0.00 0.00 0.00 0.00 0.00 0.00 0.00 0.00 0.00 0.01 0.01 0.02 0.02 0.02 0.01 0.01 0.00 0.00 0.00 0.01 0.01 0.02 0.03 0.03 0.01 0.01 0.00 0.00 0.00 0.00 0.00 0.00 0.00 0.00 0.00 0.00 0.00
0.00 0.00 0.00 0.00 0.00 0.00 0.00 0.00 0.00 0.00 0.00 0.00 0.01 0.01 0.01 0.00 0.00 0.00 0.01 0.01 0.02 0.02 0.01 0.00 0.00 0.02 0.02 0.00 0.00 0.00 0.00 0.00 0.00 0.00 0.00 0.00 0.00 0.00
0.00 0.00 0.00 0.00 0.00 0.00 0.00 0.00 0.00 0.01 0.01 0.01 0.01 0.01 0.01 0.01 0.01 0.01 0.02 0.03 0.03 0.01 0.01 0.02 0.03 0.05 0.01 0.00 0.00 0.00 0.00 0.00 0.00 0.00 0.00 0.00 0.00 0.00
0.00 0.00 0.00 0.00 0.00 0.00 0.00 0.00 0.00 0.00 0.00 0.00 0.00 0.00 0.01 0.01 0.01 0.01 0.01 0.02 0.02 0.02 0.01 0.03 0.04 0.05 0.02 0.00 0.00 0.00 0.00 0.00 0.00 0.01 0.01 0.00 0.00 0.00
MSLP
1020.39 1021.00 1021.49 1022.10 1022.37 1022.72 1022.91 1023.34 1024.10 1025.48 1025.69 1025.24 1025.36 1025.22 1025.71 1026.13 1026.25 1026.31 1026.46 1026.50 1026.68 1026.95 1027.28 1027.61 1028.00 1028.15 1028.13 1028.40 1028.65 1028.84 1028.92 1028.91 1029.09 1029.22 1029.35 1029.48 1029.27 1029.09
1020.03 1020.57 1021.07 1021.61 1022.03 1022.41 1022.80 1022.94 1023.29 1023.92 1024.70 1024.54 1025.04 1025.16 1025.29 1025.89 1026.19 1026.44 1026.46 1026.45 1026.54 1026.73 1027.07 1027.50 1027.90 1028.11 1028.24 1028.49 1028.78 1028.97 1029.06 1029.03 1028.92 1029.02 1029.28 1029.46 1029.61 1029.42
1019.53 1019.95 1020.37 1021.06 1021.45 1021.96 1022.35 1022.62 1023.03 1023.46 1024.05 1024.49 1024.70 1025.21 1025.40 1025.56 1026.19 1026.46 1026.56 1026.63 1026.69 1026.80 1027.14 1027.46 1027.76 1028.11 1028.24 1028.47 1028.74 1028.92 1028.99 1029.19 1029.22 1029.06 1029.10 1029.41 1029.83 1029.93
1018.94 1019.45 1019.84 1020.54 1020.90 1021.33 1021.80 1022.11 1022.49 1022.98 1023.51 1024.23 1024.71 1025.13 1025.47 1025.70 1025.92 1026.43 1026.57 1026.67 1026.92 1026.92 1027.16 1027.51 1027.80 1028.06 1028.29 1028.45 1028.67 1028.86 1028.96 1029.21 1029.52 1029.49 1029.55 1029.47 1029.65 1029.89
1018.29 1018.79 1019.25 1019.85 1020.32 1020.52 1020.95 1021.44 1021.88 1022.32 1022.90 1023.61 1024.47 1025.01 1025.40 1025.74 1026.20 1026.63 1026.82 1026.93 1026.98 1026.93 1026.99 1027.37 1027.65 1028.01 1028.27 1028.56 1028.88 1028.99 1029.25 1029.47 1029.72 1029.89 1029.94 1030.03 1030.29 1030.24
1017.61 1017.94 1018.36 1018.85 1019.18 1019.83 1020.22 1020.41 1020.87 1021.42 1022.25 1022.83 1023.63 1024.41 1024.94 1025.49 1025.61 1026.27 1027.00 1027.09 1027.21 1027.05 1026.98 1027.17 1027.58 1027.87 1028.05 1028.19 1028.65 1029.01 1029.35 1029.52 1029.73 1029.99 1030.25 1030.32 1030.47 1030.63
1016.78 1017.17 1017.61 1017.94 1018.30 1018.52 1019.04 1019.62 1020.15 1020.66 1021.26 1022.01 1022.79 1023.34 1024.15 1024.83 1024.92 1025.34 1026.33 1026.82 1027.03 1027.06 1027.28 1027.49 1027.56 1027.82 1027.95 1027.97 1028.48 1028.88 1029.34 1029.64 1029.65 1029.85 1030.05 1030.13 1030.26 1030.40
1016.65 1016.56 1017.10 1017.47 1017.59 1017.89 1018.21 1018.61 1019.01 1019.51 1020.02 1020.70 1021.09 1022.05 1022.42 1023.03 1023.71 1024.66 1025.61 1026.63 1027.45 1026.58 1026.74 1027.12 1027.04 1027.61 1027.96 1027.95 1027.98 1028.46 1029.26 1029.61 1029.63 1029.82 1030.11 1030.05 1030.30 1030.45
1015.68 1015.71 1016.60 1016.79 1016.77 1017.09 1017.90 1018.23 1018.38 1018.53 1018.81 1019.24 1019.84 1020.23 1020.94 1021.30 1022.16 1023.64 1024.22 1024.61 1025.06 1025.23 1025.91 1027.05 1027.23 1027.15 1027.45 1027.80 1027.74 1028.21 1028.83 1029.22 1029.41 1029.66 1029.81 1030.27 1030.26 1030.36
1015.48 1015.64 1016.18 1016.14 1016.44 1016.59 1017.11 1017.55 1018.05 1018.11 1018.37 1018.51 1018.87 1019.41 1019.85 1020.75 1020.88 1021.43 1022.44 1023.84 1024.69 1025.04 1025.10 1026.28 1026.53 1026.78 1027.23 1027.50 1027.52 1027.60 1028.03 1028.65 1028.99 1029.36 1029.76 1030.05 1030.33 1030.40
1014.85 1015.21 1015.56 1015.98 1016.15 1016.38 1016.57 1017.03 1017.42 1017.35 1017.58 1017.64 1018.18 1018.58 1019.16 1019.88 1020.53 1021.62 1022.64 1023.62 1024.43 1024.51 1024.74 1025.32 1026.13 1026.53 1027.06 1027.08 1026.91 1027.00 1027.41 1027.88 1028.35 1028.93 1028.97 1029.18 1029.79 1029.88
1014.46 1014.69 1015.03 1015.13 1015.54 1015.95 1016.19 1016.43 1016.81 1016.43 1016.95 1017.36 1018.13 1018.39 1018.73 1019.30 1019.84 1020.11 1021.23 1022.27 1023.37 1024.16 1024.32 1024.88 1025.64 1026.04 1026.90 1026.19 1026.29 1026.25 1026.23 1026.49 1027.14 1027.65 1028.04 1028.31 1029.02 1029.37
1014.15 1014.45 1014.68 1014.82 1015.01 1015.45 1015.65 1016.02 1016.16 1016.27 1016.44 1016.90 1017.56 1018.29 1018.66 1018.74 1019.22 1019.53 1020.17 1020.63 1021.89 1022.47 1022.61 1023.37 1024.56 1025.05 1025.47 1025.73 1025.99 1026.14 1025.99 1025.81 1025.97 1026.41 1026.92 1027.65 1028.04 1028.62
1014.10 1014.47 1014.49 1014.76 1014.93 1014.97 1015.19 1015.61 1015.76 1016.07 1016.67 1017.12 1017.53 1018.33 1018.97 1019.00 1019.43 1019.37 1019.77 1019.99 1020.31 1020.96 1021.52 1021.96 1023.02 1023.47 1024.44 1025.45 1025.51 1025.71 1026.15 1026.33 1026.36 1026.55 1026.85 1027.35 1027.68 1027.85
1014.22 1014.38 1014.59 1014.88 1014.89 1014.48 1014.87 1015.45 1015.54 1016.20 1016.72 1017.44 1017.90 1018.18 1018.64 1018.94 1019.47 1020.11 1020.46 1020.93 1021.37 1021.65 1021.71 1022.34 1022.49 1023.06 1023.66 1024.28 1024.85 1025.40 1025.96 1026.16 1026.27 1026.46 1026.86 1027.14 1027.34 1027.76
1014.54 1015.06 1014.98 1015.02 1014.88 1014.79 1014.79 1015.38 1015.49 1016.28 1016.85 1017.14 1018.08 1018.24 1018.77 1019.32 1019.53 1019.71 1020.38 1021.01 1021.66 1022.29 1022.44 1022.65 1022.91 1022.95 1023.56 1024.18 1024.82 1025.10 1025.36 1025.56 1025.62 1025.96 1026.42 1026.84 1027.21 1027.48
1015.17 1015.40 1015.56 1015.27 1015.22 1015.39 1015.18 1015.46 1015.89 1016.38 1016.91 1017.56 1018.38 1018.63 1019.11 1019.48 1019.73 1019.89 1020.31 1020.94 1021.23 1021.86 1022.41 1022.75 1023.18 1023.41 1023.50 1023.91 1024.57 1024.46 1025.02 1025.35 1025.34 1025.68 1026.46 1026.71 1026.67 1026.83
1015.63 1015.98 1016.09 1016.18 1016.05 1015.93 1016.07 1016.30 1016.66 1016.97 1017.17 1017.49 1018.17 1018.43 1018.98 1019.48 1019.77 1019.93 1020.35 1020.76 1021.00 1021.37 1021.84 1022.39 1022.86 1023.79 1024.28 1023.93 1023.73 1024.05 1024.39 1024.70 1025.01 1025.29 1025.72 1026.26 1026.18 1025.92
1016.57 1016.87 1016.82 1016.75 1016.57 1016.74 1016.72 1016.99 1017.56 1017.56 1017.44 1017.93 1018.21 1018.49 1018.80 1019.37 1019.79 1020.19 1020.51 1020.73 1020.89 1021.10 1021.35 1021.97 1022.60 1022.69 1023.57 1024.01 1023.45 1023.11 1023.57 1024.11 1024.50 1024.71 1025.13 1025.55 1025.53 1024.97
1017.49 1017.54 1017.65 1017.68 1017.62 1017.55 1017.61 1017.95 1017.96 1017.91 1018.03 1018.24 1018.41 1018.69 1018.96 1019.22 1019.68 1020.13 1020.45 1020.62 1020.75 1020.93 1021.28 1021.48 1021.97 1022.41 1022.42 1022.90 1023.19 1022.45 1022.58 1023.23 1023.75 1024.33 1024.66 1025.03 1024.94 1024.72
1018.68 1018.57 1018.63 1018.68 1018.68 1018.52 1018.47 1018.38 1018.29 1018.37 1018.48 1018.63 1018.71 1018.86 1019.09 1019.32 1019.65 1019.86 1019.99 1020.21 1020.46 1020.68 1020.93 1021.01 1020.94 1021.20 1022.01 1022.78 1022.83 1022.40 1022.24 1022.48 1022.86 1023.30 1023.84 1024.52 1024.73 1024.86
1019.81 1019.70 1019.67 1019.51 1019.59 1019.56 1019.38 1019.16 1018.97 1018.90 1018.91 1018.87 1018.90 1018.98 1019.05 1019.17 1019.32 1019.46 1019.65 1019.90 1020.00 1020.13 1020.26 1020.47 1020.83 1021.25 1021.97 1022.03 1021.97 1022.13 1022.20 1022.31 1022.44 1022.66 1022.91 1022.92 1023.57 1023.76
1020.63 1020.49 1020.32 1020.15 1020.11 1020.05 1019.97 1019.81 1019.53 1019.33 1019.20 1019.13 1019.05 1019.09 1019.19 1019.29 1019.29 1019.28 1019.30 1019.47 1019.62 1019.88 1020.04 1020.28 1020.54 1020.90 1021.19 1021.39 1021.60 1021.82 1022.04 1022.24 1022.35 1022.49 1022.52 1022.44 1022.50 1022.56
Thickness
5617 5617 5618 5617 5618 5618 5620 5621 5617 5606 5609 5614 5614 5615 5609 5607 5607 5606 5605 5603 5599 5596 5593 5590 5586 5584 5580 5576 5572 5569 5566 5563 5558 5552 5547 5543 5541 5540
5611 5612 5612 5611 5611 5611 5612 5613 5614 5612 5610 5611 5607 5608 5606 5600 5599 5596 5597 5596 5593 5590 5586 5582 5578 5576 5572 5568 5563 5560 5556 5554 5552 5547 5541 5538 5534 5533
5606 5608 5609 5606 5606 5605 5605 5605 5605 5604 5604 5600 5599 5597 5597 5595 5590 5589 5589 5588 5585 5581 5576 5573 5570 5567 5564 5560 5556 5552 5549 5543 5541 5539 5536 5531 5525 5522
5601 5601 5603 5600 5600 5600 5599 5600 5599 5596 5595 5593 5589 5587 5587 5585 5583 5580 5579 5578 5574 5571 5566 5562 5559 5557 5553 5550 5547 5543 5540 5536 5530 5527 5525 5524 5519 5514
5594 5595 5594 5593 5593 5595 5595 5594 5593 5592 5589 5585 5580 5577 5576 5575 5571 5568 5567 5565 5562 5559 5556 5553 5551 5546 5542 5538 5535 5532 5527 5524 5519 5515 5513 5511 5506 5503
5588 5589 5589 5589 5590 5587 5587 5589 5588 5588 5583 5580 5575 5570 5568 5564 5564 5560 5552 5552 5549 5549 5549 5545 5539 5535 5533 5530 5525 5520 5516 5513 5509 5504 5500 5498 5495 5491
5582 5584 5584 5586 5585 5586 5584 5582 5581 5579 5577 5574 5569 5565 5560 5553 5557 5551 5547 5538 5536 5539 5536 5532 5530 5526 5522 5519 5514 5509 5504 5500 5498 5494 5492 5489 5485 5480
5573 5576 5577 5576 5577 5577 5579 5578 5578 5575 5573 5570 5570 5564 5561 5556 5550 5543 5530 5525 5520 5527 5524 5521 5522 5516 5508 5506 5503 5498 5491 5486 5484 5481 5477 5474 5469 5465
5568 5571 5568 5569 5571 5571 5568 5566 5566 5568 5567 5567 5565 5564 5558 5556 5546 5535 5529 5528 5524 5522 5515 5508 5506 5503 5499 5494 5492 5486 5481 5476 5473 5467 5465 5458 5456 5453
5555 5559 5557 5560 5561 5562 5558 5556 5554 5556 5556 5557 5556 5553 5550 5542 5541 5537 5531 5520 5514 5510 5508 5498 5494 5492 5487 5482 5480 5477 5473 5466 5461 5456 5450 5445 5442 5439
5548 5548 5548 5548 5549 5549 5552 5550 5547 5549 5547 5548 5545 5544 5539 5534 5528 5521 5512 5507 5500 5500 5497 5492 5483 5478 5473 5473 5472 5467 5461 5456 5451 5443 5441 5438 5429 5426
5535 5535 5536 5539 5537 5537 5540 5541 5539 5543 5538 5535 5530 5530 5529 5524 5519 5517 5509 5502 5491 5485 5484 5478 5470 5465 5461 5465 5461 5459 5456 5451 5444 5438 5432 5428 5418 5415
5526 5523 5524 5527 5527 5525 5524 5526 5527 5528 5529 5524 5520 5516 5514 5514 5510 5508 5502 5498 5485 5480 5479 5471 5462 5457 5454 5452 5447 5444 5442 5440 5438 5432 5426 5416 5410 5406
5512 5512 5514 5513 5514 5516 5516 5513 5513 5513 5510 5507 5504 5500 5496 5496 5492 5492 5489 5487 5484 5478 5472 5466 5459 5454 5445 5437 5435 5431 5425 5420 5417 5414 5409 5401 5395 5392
5503 5502 5502 5503 5503 5508 5505 5503 5504 5499 5494 5488 5486 5485 5483 5481 5476 5473 5471 5467 5463 5459 5455 5447 5447 5441 5434 5428 5423 5416 5410 5407 5402 5398 5392 5389 5383 5380
5489 5487 5488 5488 5491 5494 5495 5491 5490 5485 5481 5480 5473 5470 5467 5463 5460 5459 5454 5448 5443 5436 5433 5429 5425 5424 5417 5411 5405 5403 5399 5395 5391 5385 5380 5376 5372 5367
5473 5473 5473 5475 5476 5477 5479 5478 5475 5473 5469 5463 5457 5453 5450 5447 5444 5442 5439 5433 5430 5424 5418 5413 5409 5406 5404 5401 5393 5393 5386 5381 5377 5375 5368 5364 5360 5357
5457 5456 5456 5456 5456 5458 5459 5457 5455 5455 5453 5450 5445 5442 5438 5434 5431 5429 5424 5420 5418 5413 5407 5402 5398 5389 5385 5386 5383 5378 5375 5371 5367 5365 5359 5352 5348 5347
5437 5436 5436 5437 5439 5438 5439 5438 5436 5437 5438 5434 5432 5429 5425 5420 5416 5411 5408 5405 5403 5400 5397 5390 5385 5385 5376 5370 5370 5371 5368 5361 5356 5354 5348 5342 5338 5337
5416 5416 5416 5417 5419 5419 5418 5417 5418 5419 5418 5417 5416 5413 5410 5407 5403 5398 5394 5392 5390 5387 5382 5379 5374 5369 5371 5367 5360 5362 5357 5351 5345 5338 5332 5327 5325 5323
5393 5394 5394 5394 5395 5397 5398 5400 5401 5400 5400 5398 5397 5396 5393 5390 5387 5386 5384 5382 5379 5374 5371 5368 5366 5362 5356 5350 5347 5347 5342 5338 5333 5327 5321 5312 5309 5305
5370 5372 5373 5375 5375 5376 5378 5380 5381 5382 5381 5381 5380 5379 5378 5377 5376 5373 5370 5368 5367 5364 5362 5357 5351 5346 5340 5339 5337 5331 5326 5322 5318 5314 5311 5308 5299 5290
5352 5354 5356 5358 5359 5360 5361 5362 5364 5366 5366 5366 5366 5365 5363 5362 5361 5360 5358 5356 5353 5350 5345 5341 5337 5332 5329 5325 5322 5316 5311 5306 5303 5301 5300 5295 5293 5289